Regional Weather Roundup
Issued by NWS

Home | Current Version | Previous Version | Graphics & Text | Print | Product List | Glossary On
Versions: 1 2 3 4 5 6 7 8 9 10 11 12 13 14 15 16 17 18 19 20 21 22 23 24 25 26 27 28 29 30 31 32 33 34 35 36 37 38 39 40 41 42 43 44 45 46 47 48 49 50
000
ASUS43 KLMK 300410
RWRKY
KENTUCKY REGIONAL WEATHER ROUNDUP
NATIONAL WEATHER SERVICE LOUISVILLE KY
1200 AM EDT FRI SEP 30 2016

NOTE "FAIR" INDICATES FEW OR NO CLOUDS BELOW 12,000 FEET
WITH NO SIGNIFICANT WEATHER AND/OR OBSTRUCTIONS TO VISIBILITY.

KYZ001>023-026-027-061>063-070>075-300500-
WESTERN AND SOUTH CENTRAL KENTUCKY

CITY           SKY/WX    TMP DP  RH WIND       PRES   REMARKS
PADUCAH        PTCLDY    57  54  89 W3        30.12F
HENDERSON      CLEAR     55  50  82 NW6       30.09F
OWENSBORO      NOT AVBL
HOPKINSVILLE   PTCLDY    54  54 100 SW6       30.10F
BOWLING GREEN  CLEAR     53  51  93 CALM      30.10F FOG
GLASGOW        FOG      N/A N/A N/A CALM      30.10F VSB 1/4
$$

KYZ024-025-028>034-038-045-046-053-300500-
NORTH CENTRAL KENTUCKY

CITY           SKY/WX    TMP DP  RH WIND       PRES   REMARKS
LOUISVILLE/SDF CLOUDY    58  54  86 CALM      30.08F
LOUISVILLE/LOU LGT RAIN  58  54  86 CALM      30.09S
FORT KNOX      FOG       52  50  93 CALM      30.07F VSB 1/2
$$

KYZ035>037-039>044-047>052-055>060-089>105-300500-
NORTHEAST KENTUCKY

CITY           SKY/WX    TMP DP  RH WIND       PRES   REMARKS
LEXINGTON      LGT RAIN  55  52  89 W5        30.09S
COVINGTON      LGT RAIN  59  57  93 NE5       30.07S
FRANKFORT      HVY RAIN  56  53  90 CALM      30.08R FOG
$$

KYZ054-064>069-076>088-106>120-300500-
SOUTHEAST KENTUCKY

CITY           SKY/WX    TMP DP  RH WIND       PRES   REMARKS
JACKSON        CLOUDY    54  53  97 CALM      30.07F FOG
LONDON         CLEAR     52  49  89 CALM      30.09F
SOMERSET       CLOUDY    52  52 100 CALM      30.10F
MIDDLESBORO    CLOUDY    52  51  97 CALM      30.09F
MONTICELLO     MOCLDY    51  50  96 NE7       30.12F FOG
$$





USA.gov is the U.S. government's official web portal to all federal, state and local government web resources and services.